Tracking 28081 objects as of 27-Sep-2023
HD Live streaming from Space Station
objects crossing your sky now

SSA

Track SSA now!
10-day predictions
SSA is classified as:


NORAD ID: 13844
Int'l Code: 1983-008E
Perigee: 412.5 km
Apogee: 1,637.5 km
Inclination: 63.3 °
Period: 105.5 minutes
Semi major axis: 7396 km
RCS: Unknown
Launch date: February 9, 1983
Source: United States (US)
Launch site: AIR FORCE WESTERN TEST RANGE (AFWTR)
Your satellite tracking list
Your tracking list is empty




NASA's NSSDC Master Catalog

Two Line Element Set (TLE):
1 13844U 83008E   23269.82902183  .00007633  00000-0  74605-3 0  9998
2 13844  63.3001 224.2259 0828159 117.1814 251.6089 13.64920399222381
Source of the keplerian elements: McCants